This demonstration page uses our WeatherBlox Daily Observations layout. Learn more.

Left ArrowRight Arrow

Hourly Observations for July 28, 2022

Temp ( °F °C ) Dew Point ( °F °C ) Humidity (%) Winds ( mph kmh ) Pressure ( in mb ) Visibility ( mi km ) Precip ( " mm )
12:15 am 00:15 Clear 77 25 75 24 94 94 WSW 6 9 29.90 1013 10 16 0.00 0.00
12:35 am 00:35 Clear 77 25 75 24 94 94 SW 5 7 29.91 1013 10 16 0.00 0.00
12:55 am 00:55 Clear 75 24 75 24 100 100 S 7 11 29.91 1013 10 16 0.00 0.00
1:15 am 01:15 Clear 75 24 75 24 100 100 SSW 6 9 29.90 1012 10 16 0.00 0.00
1:35 am 01:35 Clear 75 24 73 23 94 94 SSW 6 9 29.90 1012 10 16 0.00 0.00
1:55 am 01:55 Clear 75 24 73 23 94 94 SW 5 7 29.90 1012 10 16 0.00 0.00
2:15 am 02:15 Clear 75 24 73 23 94 94 Calm 29.89 1012 10 16 0.00 0.00
2:35 am 02:35 Clear 73 23 73 23 100 100 Calm 29.90 1012 10 16 0.00 0.00
2:55 am 02:55 Clear 75 24 73 23 94 94 W 3 6 29.89 1012 10 16 0.00 0.00
3:15 am 03:15 Clear 73 23 73 23 100 100 WSW 3 6 29.89 1012 10 16 0.00 0.00
3:35 am 03:35 Partly Cloudy 75 24 72 22 89 89 SSW 3 6 29.89 1012 10 16 0.00 0.00
3:55 am 03:55 Clear 75 24 72 22 89 89 W 3 6 29.89 1012 10 16 0.00 0.00
4:15 am 04:15 Clear 75 24 72 22 89 89 WSW 3 6 29.90 1012 10 16 0.00 0.00
4:35 am 04:35 Clear 75 24 72 22 89 89 WSW 5 7 29.89 1012 10 16 0.00 0.00
4:55 am 04:55 Clear 75 24 72 22 89 89 WSW 6 9 29.89 1012 10 16 0.00 0.00
5:15 am 05:15 Clear 75 24 72 22 89 89 Calm 29.89 1012 10 16 0.00 0.00
5:35 am 05:35 Partly Cloudy 73 23 72 22 94 94 W 3 6 29.90 1012 10 16 0.00 0.00
5:55 am 05:55 Partly Cloudy 73 23 72 22 94 94 Calm 29.90 1012 10 16 0.00 0.00
6:15 am 06:15 Partly Cloudy 73 23 72 22 94 94 Calm 29.90 1012 10 16 0.00 0.00
6:35 am 06:35 Partly Cloudy 75 24 72 22 89 89 Calm 29.90 1012 10 16 0.00 0.00
6:55 am 06:55 Sunny 73 23 72 22 94 94 Calm 29.91 1013 10 16 0.00 0.00
7:15 am 07:15 Sunny 77 25 73 23 89 89 Calm 29.90 1013 10 16 0.00 0.00
7:35 am 07:35 Partly Cloudy 77 25 73 23 89 89 Calm 29.90 1013 10 16 0.00 0.00
7:55 am 07:55 Partly Cloudy 77 25 73 23 89 89 Calm 29.91 1013 10 16 0.00 0.00
8:15 am 08:15 Partly Cloudy 77 25 73 23 89 89 Calm 29.91 1013 10 16 0.00 0.00
8:35 am 08:35 Partly Cloudy 77 25 73 23 89 89 Calm 29.91 1013 10 16 0.00 0.00
8:55 am 08:55 Partly Cloudy 79 26 75 24 89 89 Calm 29.91 1013 10 16 0.00 0.00
9:15 am 09:15 Sunny 82 28 73 23 74 74 SW 3 6 29.91 1013 10 16 0.00 0.00
9:35 am 09:35 Sunny 84 29 75 24 74 74 NW 5 7 29.90 1012 10 16 0.00 0.00
9:55 am 09:55 Sunny 86 30 73 23 66 66 W 5 7 29.89 1012 N/A 0.00 0.00
10:15 am 10:15 Sunny 86 30 75 24 70 70 W 6 9 29.89 1012 10 16 0.00 0.00
10:35 am 10:35 Sunny 84 29 75 24 74 74 WSW 6 9 29.90 1012 10 16 0.00 0.00
10:55 am 10:55 Mostly Cloudy 82 28 75 24 79 79 WSW 3 6 29.90 1013 10 16 0.00 0.00
11:15 am 11:15 Partly Cloudy 86 30 77 25 75 75 S 6 9 29.90 1012 10 16 0.00 0.00
11:35 am 11:35 Partly Cloudy 86 30 77 25 75 75 SW 5 7 29.90 1012 10 16 0.00 0.00
11:55 am 11:55 Mostly Cloudy 86 30 75 24 70 70 WSW 3 6 29.90 1012 10 16 0.00 0.00
12:15 pm 12:15 Partly Cloudy 86 30 75 24 70 70 WSW 6 9 29.90 1012 10 16 0.00 0.00
12:35 pm 12:35 Partly Cloudy 88 31 75 24 66 66 WSW 7 11 29.90 1012 10 16 0.00 0.00
12:55 pm 12:55 Partly Cloudy 88 31 75 24 66 66 SW 7 11 29.89 1012 10 16 0.00 0.00
1:15 pm 13:15 Partly Cloudy 88 31 73 23 62 62 WSW 9 15 29.89 1012 10 16 0.00 0.00
1:35 pm 13:35 Partly Cloudy 90 32 75 24 63 63 SW 12 19 29.88 1012 10 16 0.00 0.00
1:55 pm 13:55 Partly Cloudy 90 32 73 23 59 59 WSW 7 11 29.88 1012 10 16 0.00 0.00
2:15 pm 14:15 Partly Cloudy 90 32 73 23 59 59 WSW 8 13 29.88 1012 10 16 0.00 0.00
2:35 pm 14:35 Partly Cloudy 90 32 73 23 59 59 SW 9 15 29.88 1012 10 16 0.00 0.00
2:55 pm 14:55 Sunny 90 32 73 23 59 59 WSW 9 15 29.88 1012 10 16 0.00 0.00
3:15 pm 15:15 Sunny 91 33 73 23 56 56 WSW 10 17 29.86 1011 10 16 0.00 0.00
3:55 pm 15:55 Mostly Cloudy with Light Rain 88 31 75 24 66 66 WSW 12 19 29.86 1011 10 16 0.00 0.00
4:15 pm 16:15 Mostly Cloudy with Mist and Fog 81 27 77 25 89 89 WNW 6 9 29.86 1011 5 8 0.11 2.79
4:35 pm 16:35 Sunny 84 29 77 25 79 79 Calm 29.84 1010 10 16 0.11 2.79
4:55 pm 16:55 Sunny 86 30 79 26 79 79 WSW 3 6 29.84 1010 10 16 0.11 2.79
5:15 pm 17:15 Partly Cloudy 88 31 77 25 70 70 WSW 7 11 29.85 1011 10 16 0.00 0.00
5:35 pm 17:35 Partly Cloudy 88 31 77 25 70 70 WSW 7 11 29.85 1011 10 16 0.00 0.00
5:55 pm 17:55 Partly Cloudy 90 32 77 25 67 67 SW 8 13 29.85 1011 10 16 0.00 0.00
6:15 pm 18:15 Partly Cloudy 88 31 77 25 70 70 SW 7 11 29.85 1011 10 16 0.00 0.00
6:35 pm 18:35 Sunny 88 31 77 25 70 70 SW 7 11 29.85 1011 10 16 0.00 0.00
6:55 pm 18:55 Mostly Cloudy 86 30 77 25 75 75 W 7 11 29.85 1011 10 16 0.00 0.00
7:15 pm 19:15 Cloudy 79 26 77 25 94 94 W 8 13 29.86 1011 10 16 0.18 4.57
7:35 pm 19:35 Mostly Cloudy 79 26 75 24 89 89 W 7 11 29.87 1012 10 16 0.18 4.57
7:55 pm 19:55 Mostly Cloudy 77 25 75 24 94 94 WSW 8 13 29.87 1012 10 16 0.18 4.57
8:15 pm 20:15 Partly Cloudy 77 25 73 23 89 89 WSW 5 7 29.88 1012 10 16 0.00 0.00
8:35 pm 20:35 Clear 73 23 73 23 100 100 WSW 7 11 29.89 1012 10 16 0.00 0.00
8:55 pm 20:55 Clear 73 23 73 23 100 100 Calm 29.90 1012 10 16 0.00 0.00
9:15 pm 21:15 Clear 73 23 72 22 94 94 Calm 29.91 1013 10 16 0.00 0.00
9:35 pm 21:35 Clear 73 23 72 22 94 94 Calm 29.92 1013 10 16 0.00 0.00
9:55 pm 21:55 Clear 73 23 72 22 94 94 W 3 6 29.94 1014 10 16 0.00 0.00
10:15 pm 22:15 Clear 73 23 72 22 94 94 SW 3 6 29.94 1014 10 16 0.00 0.00
10:35 pm 22:35 Clear 73 23 72 22 94 94 SW 6 9 29.94 1014 10 16 0.00 0.00
10:55 pm 22:55 Clear 72 22 72 22 100 100 SSW 3 6 29.94 1014 10 16 0.00 0.00
11:15 pm 23:15 Clear 72 22 72 22 100 100 SSW 3 6 29.94 1014 10 16 0.00 0.00
11:35 pm 23:35 Clear 72 22 72 22 100 100 SW 3 6 29.94 1014 10 16 0.00 0.00
11:55 pm 23:55 Clear 72 22 72 22 100 100 Calm 29.94 1014 10 16 0.00 0.00

Powered by AerisWeather